timestamp,surface_pressure_avg,surface_temp_avg,battery_voltage,lat,long
2022-03-16 00:09:01+00:00,290.933,1.0,11.77,47.84626,-54.09684
2022-03-16 00:19:01+00:00,288.2813,1.07,11.77,47.84626,-54.09684
2022-03-16 00:29:01+00:00,285.888,1.05,11.77,47.84626,-54.09684
2022-03-16 00:39:01+00:00,281.5664,1.09,11.77,47.84626,-54.09684
2022-03-16 00:49:01+00:00,279.748,1.1,11.77,47.84626,-54.09684
2022-03-16 00:59:01+00:00,273.8814,1.0,11.77,47.84626,-54.09684
2022-03-16 01:09:01+00:00,264.683,0.9,11.77,47.84626,-54.09684
2022-03-16 01:19:01+00:00,258.9097,0.7,11.77,47.84626,-54.09684
2022-03-16 01:29:01+00:00,256.3214,0.9,11.77,47.84626,-54.09684
2022-03-16 01:39:01+00:00,247.9931,1.04,11.77,47.84626,-54.09684
2022-03-16 01:49:01+00:00,238.8764,1.08,11.77,47.84626,-54.09684
2022-03-16 01:59:01+00:00,235.2048,1.1,11.77,47.84626,-54.09684
2022-03-16 02:09:01+00:00,228.4847,1.11,11.77,47.84626,-54.09684
2022-03-16 02:19:01+00:00,222.0831,1.1,11.77,47.84626,-54.09684
2022-03-16 02:29:01+00:00,219.9698,1.1,11.77,47.84626,-54.09684
2022-03-16 02:39:01+00:00,215.8831,1.1,11.77,47.84626,-54.09684
2022-03-16 02:49:01+00:00,207.5797,1.08,11.77,47.84626,-54.09684
2022-03-16 02:59:01+00:00,202.4731,1.0,11.77,47.84626,-54.09684
2022-03-16 03:09:01+00:00,202.7564,1.01,11.77,47.84626,-54.09684
2022-03-16 03:19:00+00:00,200.1131,1.04,11.77,47.84626,-54.09684
2022-03-16 03:29:00+00:00,195.0031,1.06,11.77,47.84626,-54.09684
2022-03-16 03:39:00+00:00,192.0582,1.06,11.77,47.84626,-54.09684
2022-03-16 03:49:00+00:00,193.2348,1.02,11.77,47.84626,-54.09684
2022-03-16 03:59:00+00:00,194.6881,1.01,11.77,47.84626,-54.09684
2022-03-16 04:09:00+00:00,193.0164,1.0,11.77,47.84626,-54.09684
2022-03-16 04:19:00+00:00,192.8331,1.03,11.77,47.84626,-54.09684
2022-03-16 04:29:00+00:00,193.4648,1.05,11.77,47.84626,-54.09684
2022-03-16 04:39:00+00:00,192.2564,1.08,11.77,47.84626,-54.09684
2022-03-16 04:49:00+00:00,193.0431,1.1,11.77,47.84626,-54.09684
2022-03-16 04:59:00+00:00,192.8698,1.1,11.77,47.84626,-54.09684
2022-03-16 05:09:00+00:00,192.2264,1.1,11.77,47.84626,-54.09684
2022-03-16 05:19:00+00:00,194.5331,1.1,11.77,47.84626,-54.09684
2022-03-16 05:29:00+00:00,197.9964,1.1,11.77,47.84626,-54.09684
2022-03-16 05:39:00+00:00,199.8381,1.1,11.77,47.84626,-54.09684
2022-03-16 05:49:00+00:00,203.3498,1.1,11.77,47.84626,-54.09684
2022-03-16 05:59:00+00:00,209.5298,1.1,11.77,47.84626,-54.09684
2022-03-16 06:09:00+00:00,213.2748,1.09,11.77,47.84626,-54.09684
2022-03-16 06:19:01+00:00,217.4315,1.1,11.77,47.84626,-54.09684
2022-03-16 06:29:01+00:00,227.7481,1.1,11.77,47.84626,-54.09684
2022-03-16 06:39:01+00:00,238.4998,1.1,11.77,47.84626,-54.09684
2022-03-16 06:49:01+00:00,242.6631,1.1,11.77,47.84626,-54.09684
2022-03-16 06:59:01+00:00,246.2281,1.1,11.77,47.84626,-54.09684
2022-03-16 07:09:01+00:00,254.3748,1.1,11.77,47.84626,-54.09684
2022-03-16 07:19:01+00:00,262.828,1.1,11.77,47.84626,-54.09684
2022-03-16 07:29:01+00:00,268.6614,1.1,11.77,47.84626,-54.09684
2022-03-16 07:39:01+00:00,269.7298,1.1,11.77,47.84626,-54.09684
2022-03-16 07:49:01+00:00,276.1164,1.1,11.77,47.84626,-54.09684
2022-03-16 07:59:01+00:00,283.0897,1.1,11.77,47.84626,-54.09684
2022-03-16 08:09:01+00:00,286.1131,1.12,11.77,47.84626,-54.09684
2022-03-16 08:19:00+00:00,290.3947,1.12,11.77,47.84626,-54.09684
2022-03-16 08:29:00+00:00,298.4163,1.1,11.77,47.84626,-54.09684
2022-03-16 08:39:00+00:00,304.6346,1.1,11.77,47.84626,-54.09684
2022-03-16 08:49:00+00:00,307.2047,1.15,11.77,47.84626,-54.09684
2022-03-16 08:59:00+00:00,310.6897,1.23,11.77,47.84626,-54.09684
2022-03-16 09:09:00+00:00,315.1713,1.2,11.77,47.84626,-54.09684
2022-03-16 10:19:01+00:00,348.3013,1.35,11.7,47.84626,-54.09684
2022-03-16 10:29:01+00:00,353.44300000000015,1.35,11.7,47.84626,-54.09684
2022-03-16 10:39:01+00:00,356.6314,1.39,11.7,47.84626,-54.09684
2022-03-16 10:49:01+00:00,357.1163,1.46,11.7,47.84626,-54.09684
2022-03-16 10:59:01+00:00,358.1662,1.5,11.7,47.84626,-54.09684
2022-03-16 11:09:01+00:00,355.8096,1.5,11.7,47.84626,-54.09684
2022-03-16 11:19:00+00:00,354.19300000000015,1.5,11.7,47.84626,-54.09684
2022-03-16 11:29:00+00:00,353.5446,1.5,11.7,47.84626,-54.09684
2022-03-16 11:39:00+00:00,353.4513,1.5,11.7,47.84626,-54.09684
2022-03-16 11:49:00+00:00,352.6129,1.5,11.7,47.84626,-54.09684
2022-03-16 11:59:00+00:00,352.3729,1.5,11.7,47.84626,-54.09684
2022-03-16 12:09:00+00:00,350.6213,1.49,11.7,47.84626,-54.09684
2022-03-16 12:19:00+00:00,348.2429,1.47,12.49,47.84626,-54.09684
2022-03-16 12:29:00+00:00,344.6047,1.46,12.49,47.84626,-54.09684
2022-03-16 12:39:00+00:00,344.4446,1.49,12.49,47.84626,-54.09684
2022-03-16 12:49:00+00:00,342.7696,1.49,12.49,47.84626,-54.09684
2022-03-16 12:59:00+00:00,337.2413,1.5,12.49,47.84626,-54.09684
2022-03-16 13:09:00+00:00,332.0679,1.5,12.49,47.84626,-54.09684
2022-03-16 13:19:00+00:00,324.5797,1.5,12.09,47.84626,-54.09684
2022-03-16 13:29:00+00:00,316.5046,1.5,12.09,47.84626,-54.09684
2022-03-16 13:39:00+00:00,311.7347,1.49,12.09,47.84626,-54.09684
2022-03-16 13:49:00+00:00,309.1063,1.45,12.09,47.84626,-54.09684
2022-03-16 13:59:00+00:00,300.728,1.4,12.09,47.84626,-54.09684
2022-03-16 14:09:00+00:00,290.4014,1.4,12.09,47.84626,-54.09684
2022-03-16 14:19:00+00:00,282.6014,1.33,12.01,47.84626,-54.09684
2022-03-16 14:29:00+00:00,274.913,1.3,12.01,47.84626,-54.09684
2022-03-16 14:39:00+00:00,266.8314,1.3,12.01,47.84626,-54.09684
2022-03-16 14:49:00+00:00,260.2797,1.27,12.01,47.84626,-54.09684
2022-03-16 14:59:00+00:00,250.5847,1.2,12.01,47.84626,-54.09684
2022-03-16 15:09:00+00:00,241.0064,1.18,12.01,47.84626,-54.09684
2022-03-16 15:19:00+00:00,233.2781,1.11,12.01,47.84626,-54.09684
2022-03-16 15:29:00+00:00,225.9865,1.1,12.01,47.84626,-54.09684
2022-03-16 15:39:00+00:00,221.7931,1.12,12.01,47.84626,-54.09684
2022-03-16 15:49:00+00:00,219.9631,1.17,12.01,47.84626,-54.09684
2022-03-16 15:59:00+00:00,216.4497,1.2,12.01,47.84626,-54.09684
2022-03-16 16:09:00+00:00,212.3764,1.2,12.01,47.84626,-54.09684
2022-03-16 16:19:00+00:00,210.5915,1.2,11.93,47.84626,-54.09684
2022-03-16 16:29:00+00:00,209.8214,1.2,11.93,47.84626,-54.09684
2022-03-16 16:39:00+00:00,210.6948,1.2,11.93,47.84626,-54.09684
2022-03-16 16:49:00+00:00,210.8281,1.23,11.93,47.84626,-54.09684
2022-03-16 16:59:00+00:00,207.3098,1.28,11.93,47.84626,-54.09684
2022-03-16 17:09:00+00:00,205.8415,1.3,11.93,47.84626,-54.09684
2022-03-16 17:19:00+00:00,208.9831,1.3,11.93,47.84626,-54.09684
2022-03-16 17:29:00+00:00,211.0848,1.3,11.93,47.84626,-54.09684
2022-03-16 17:39:00+00:00,209.4814,1.37,11.93,47.84626,-54.09684
2022-03-16 17:49:00+00:00,210.9281,1.39,11.93,47.84626,-54.09684
2022-03-16 17:59:00+00:00,216.4731,1.4,11.93,47.84626,-54.09684
2022-03-16 18:09:00+00:00,221.6898,1.4,11.93,47.84626,-54.09684
2022-03-16 18:19:01+00:00,222.2214,1.4,11.93,47.84626,-54.09684
2022-03-16 18:29:01+00:00,224.1364,1.4,11.93,47.84626,-54.09684
2022-03-16 18:39:01+00:00,230.3448,1.41,11.93,47.84626,-54.09684
2022-03-16 18:49:01+00:00,235.1248,1.5,11.93,47.84626,-54.09684
2022-03-16 18:59:01+00:00,234.9381,1.53,11.93,47.84626,-54.09684
2022-03-16 19:09:01+00:00,235.0731,1.58,11.93,47.84626,-54.09684
2022-03-16 19:19:01+00:00,241.2547,1.6,11.86,47.84626,-54.09684
2022-03-16 19:29:01+00:00,247.2065,1.6,11.86,47.84626,-54.09684
2022-03-16 19:39:01+00:00,250.0348,1.6,11.86,47.84626,-54.09684
2022-03-16 19:49:01+00:00,253.4014,1.59,11.86,47.84626,-54.09684
2022-03-16 19:59:01+00:00,262.4631,1.58,11.86,47.84626,-54.09684
2022-03-16 20:09:01+00:00,265.6831,1.58,11.86,47.84626,-54.09684
2022-03-16 20:19:00+00:00,268.2248,1.59,11.86,47.84626,-54.09684
2022-03-16 20:29:00+00:00,277.3065,1.6,11.86,47.84626,-54.09684
2022-03-16 20:39:00+00:00,289.4281,1.6,11.86,47.84626,-54.09684
2022-03-16 20:49:00+00:00,293.8963,1.6,11.86,47.84626,-54.09684
2022-03-16 20:59:00+00:00,297.1114,1.6,11.86,47.84626,-54.09684
2022-03-16 21:09:00+00:00,305.6964,1.6,11.86,47.84626,-54.09684
2022-03-16 21:19:00+00:00,312.3246,1.57,11.86,47.84626,-54.09684
2022-03-16 21:29:00+00:00,318.6913,1.6,11.86,47.84626,-54.09684
2022-03-16 21:39:00+00:00,326.02299999999997,1.6,11.86,47.84626,-54.09684
2022-03-16 21:49:00+00:00,328.9063,1.5,11.86,47.84626,-54.09684
2022-03-16 21:59:00+00:00,331.8729,1.4,11.86,47.84626,-54.09684
2022-03-16 22:09:00+00:00,336.1964,1.42,11.86,47.84626,-54.09684
2022-03-16 22:19:00+00:00,343.5812,1.5,11.86,47.84626,-54.09684
2022-03-16 22:29:00+00:00,345.7047,1.46,11.86,47.84626,-54.09684
2022-03-16 22:39:00+00:00,345.6829,1.4,11.86,47.84626,-54.09684
2022-03-16 22:49:00+00:00,347.1746,1.3,11.86,47.84626,-54.09684
2022-03-16 22:59:00+00:00,347.2078,1.3,11.86,47.84626,-54.09684
2022-03-16 23:09:00+00:00,349.0179,1.29,11.86,47.84626,-54.09684
2022-03-16 23:19:01+00:00,348.1763,1.26,11.86,47.84626,-54.09684
2022-03-16 23:29:01+00:00,348.6129,1.23,11.86,47.84626,-54.09684
2022-03-16 23:39:01+00:00,345.5497,1.2,11.86,47.84626,-54.09684
2022-03-16 23:49:01+00:00,339.5296,1.2,11.86,47.84626,-54.09684
2022-03-16 23:59:01+00:00,334.5179,1.2,11.86,47.84626,-54.09684
